This demonstration page uses our WeatherBlox Daily Observations layout. Learn more.

Left ArrowRight Arrow

Hourly Observations for May 30, 2018

Temp ( °F °C ) Dew Point ( °F °C ) Humidity (%) Winds ( mph kmh ) Pressure ( in mb ) Visibility ( mi km ) Precip ( " mm )
12:53 am 00:53 Clear 79 26.1 71 21.7 77 77 VRB 7 11 29.81 1009 10 16 0.00 0.00
1:53 am 01:53 Mostly Clear 78 25.6 71 21.7 79 79 ESE 5 7 29.80 1009 10 16 0.00 0.00
2:53 am 02:53 Mostly Cloudy 77 25 70 21.1 79 79 VRB 6 9 29.79 1009 10 16 0.00 0.00
3:53 am 03:53 Mostly Cloudy 76 24.4 70 21.1 82 82 E 7 11 29.79 1009 10 16 0.00 0.00
4:53 am 04:53 Clear 75 23.9 69 20.6 82 82 E 6 9 29.78 1009 10 16 0.00 0.00
5:53 am 05:53 Mostly Cloudy 75 23.9 69 20.6 82 82 E 6 9 29.78 1009 10 16 0.00 0.00
6:53 am 06:53 Sunny 75 23.9 69 20.6 82 82 VRB 6 9 29.79 1009 10 16 0.00 0.00
7:53 am 07:53 Mostly Cloudy 76 24.4 69 20.6 79 79 SE 7 11 29.79 1009 10 16 0.00 0.00
8:53 am 08:53 Mostly Cloudy 78 25.6 70 21.1 76 76 SE 3 6 29.80 1009 10 16 0.00 0.00
9:53 am 09:53 Partly Cloudy 80 26.7 70 21.1 71 71 VRB 7 11 29.79 1009 10 16 0.00 0.00
10:53 am 10:53 Partly Cloudy 80 26.7 70 21.1 71 71 VRB 7 11 29.78 1008 10 16 0.00 0.00
11:53 am 11:53 Partly Cloudy 83 28.3 71 21.7 67 67 SSE 10 17 29.76 1008 10 16 0.00 0.00
12:53 pm 12:53 Cloudy 83 28.3 71 21.7 67 67 SSE 8 13 29.75 1007 10 16 0.00 0.00
1:53 pm 13:53 Mostly Cloudy 83 28.3 70 21.1 65 65 SSE 10 17 29.72 1007 10 16 0.00 0.00
2:25 pm 14:25 Mostly Cloudy with Heavy Rain 76 24.4 71 21.7 85 85 S 10 17 29.74 1007 2 3 0.06 1.52
2:32 pm 14:32 Cloudy with Heavy Rain 74 23.3 72 22.2 94 94 SSW 13 20 29.77 1008 1 1 0.22 5.59
2:44 pm 14:44 Cloudy with Light Rain 73 22.8 72 22.2 96 96 SSW 8 13 29.77 1008 2 3 0.31 7.87
2:53 pm 14:53 Cloudy with Heavy Rain 74 23.3 73 22.8 97 97 VRB 7 11 29.74 1007 1 2 0.36 9.14
3:00 pm 15:00 Cloudy with Rain 74 23.3 73 22.8 97 97 VRB 5 7 29.74 1007 2 3 0.02 0.51
3:03 pm 15:03 Mostly Cloudy with Light Rain 75 23.9 74 23.3 96 96 S 6 9 29.71 1006 3 5 0.02 0.51
3:53 pm 15:53 Mostly Sunny 79 26.1 73 22.8 82 82 S 9 15 29.71 1006 10 16 0.02 0.51
4:30 pm 16:30 Mostly Cloudy 79 26.1 72 22.2 79 79 S 9 15 29.68 1005 10 16 0.00 0.00
4:53 pm 16:53 Partly Cloudy 80 26.7 73 22.8 79 79 S 10 17 29.70 1006 10 16 0.00 0.00
5:53 pm 17:53 Mostly Cloudy 81 27.2 73 22.8 77 77 SSE 9 15 29.68 1005 10 16 0.00 0.00
6:53 pm 18:53 Mostly Cloudy 80 26.7 73 22.8 79 79 undefined N/A 29.67 1005 10 16 0.00 0.03
7:53 pm 19:53 Partly Cloudy with Nearby Thunderstorms 79 26.1 72 22.2 79 79 VRB 6 9 29.68 1005 10 16 0.00 0.03
8:18 pm 20:18 Cloudy with Nearby Thunderstorms 77 25 73 22.8 88 88 SW 21 33 29.71 1006 1 2 0.21 5.33
8:21 pm 20:21 Cloudy with Strong Thunderstorms 74 23.3 73 22.8 97 97 WSW 15 24 29.74 1007 1 1 0.37 9.40
8:32 pm 20:32 Cloudy with Strong Thunderstorms 72 22.2 72 22.2 100 100 VRB 7 11 29.74 1007 1 1 0.76 19.30
8:40 pm 20:40 Cloudy with Thunderstorms 72 22.2 72 22.2 100 100 VRB 3 6 29.74 1007 1 2 0.79 20.07
8:43 pm 20:43 Cloudy with Thunderstorms 72 22.2 72 22.2 100 100 SSW 5 7 29.74 1007 2 3 0.80 20.32
8:53 pm 20:53 Cloudy with Thunderstorms 73 22.8 72 22.2 96 96 VRB 5 7 29.72 1006 2 3 0.83 21.08
9:02 pm 21:02 Cloudy with Thunderstorms 73 22.8 72 22.2 96 96 S 5 7 29.74 1007 8 13 0.01 0.25
9:12 pm 21:12 Cloudy with Nearby Thunderstorms 73 22.8 72 22.2 96 96 Calm 29.74 1007 10 16 0.01 0.25
9:21 pm 21:21 Cloudy with Light Rain 73 22.8 72 22.2 96 96 W 3 6 29.74 1007 10 16 0.01 0.25
9:53 pm 21:53 Mostly Cloudy 73 22.8 72 22.2 96 96 W 5 7 29.73 1007 10 16 0.01 0.25
10:39 pm 22:39 Mostly Cloudy with Nearby Thunderstorms 75 23.9 73 22.8 94 94 VRB 7 11 29.77 1008 8 13 0.00 0.03
10:53 pm 22:53 Mostly Cloudy with Thunderstorms 75 23.9 73 22.8 94 94 S 6 9 29.75 1008 10 16 0.01 0.25
11:10 pm 23:10 Mostly Cloudy 75 23.9 73 22.8 94 94 VRB 3 6 29.77 1008 10 16 0.00 0.03
11:53 pm 23:53 Clear 74 23.3 73 22.8 97 97 VRB 6 9 29.75 1008 10 16 0.00 0.03

Powered by AerisWeather